Location: Unspecified
(0.0000°N, 0.0000°E)
Time: 05:16:14
(UTC+02:00)

CZ-4B DEB - Visible Passes

Search period start: 25 May 2015 00:00
Search period end: 04 June 2015 00:00
Orbit: 481 x 495 km, 97.5° (Epoch: 24 May)

Date Brightness Start Highest point End Pass type
(mag) Time Alt. Az. Time Alt. Az. Time Alt. Az.
25 May 4.2 20:21:27 10° SE 20:24:29 26° E 20:27:33 10° NNE visible
26 May 5.7 21:31:53 10° SSW 21:34:34 19° W 21:37:07 10° NW visible
27 May 4.1 21:07:45 10° S 21:11:15 45° W 21:14:43 10° NNW visible
28 May 3.0 20:44:20 10° SSE 20:47:57 66° E 20:51:31 10° N visible
29 May 4.2 20:21:34 10° SE 20:24:35 25° E 20:27:38 10° NNE visible
30 May 5.7 21:31:52 10° SSW 21:34:32 19° W 21:37:06 10° NW visible
31 May 4.1 21:07:36 10° S 21:11:07 46° W 21:14:35 10° NNW visible
01 Jun 3.0 20:44:06 10° SSE 20:47:42 64° ENE 20:51:15 10° N visible
02 Jun 4.3 20:21:14 10° SE 20:24:12 25° E 20:27:13 10° NNE visible
03 Jun 5.7 21:31:20 10° SSW 21:34:02 19° W 21:36:38 10° NW visible
